Flag for Poland Weather past 2 weeks in Legnica, Poland

Now
47 °F

Overcast.


Feels Like: 47 °F
Forecast: 45 / 68 °F
Wind: 2 mph from Northwest

Location: Wroclaw Ii

Current Time: May 27, 2015 at 6:58:17 AM

Latest Report: May 27, 2015 at 4:00 AM


Visibility: 31 mi

Pressure: 30.04 "Hg

Humidity: 79%

Dew point: 41 °F

Location of LegnicaLocation

Historic Weather in Legnica — Graph

°F

Legnica temperature yesterday

Maximum temperature yesterday: 63 °F (at 2:00 PM)
Minimum temperature yesterday: 55 °F (at 8:00 AM)
Average temperature yesterday: 59 °F

Past Weeks' High & Low Weather Summary

 TemperatureHumidityPressure
High76 °F (May 12, 2:00 PM)96% (May 21, 12:00 AM)30.30 "Hg (May 21, 12:00 AM)
Low32 °F (May 15, 9:00 AM)33% (May 12, 1:00 PM)29.69 "Hg (May 19, 7:00 AM)
Average57 °F67%30.01 "Hg
* Reported May 12 4:00 AM — May 27 4:00 AM, Legnica, Weather by CustomWeather, © 2015

Note: Actual official high and low records may vary slightly from our data, if they occured in-between our weather recording intervals... More about our weather records

Advertising

Legnica weather history for previous 24 hours

 ConditionsComfort  
Time TempWeatherWind HumidityBarometerVisibility
4:00 AM
Wed, May 27
47 °FOvercast.2 mph79%30.04 "Hg31 mi
3:00 AM47 °FPassing clouds.2 mph77%30.04 "Hg31 mi
2:00 AM47 °FClear.3 mph74%30.03 "Hg31 mi
1:00 AM48 °FPassing clouds.2 mph71%30.02 "Hg31 mi
12:00 AM51 °FPassing clouds.2 mph63%30.02 "Hg31 mi
10:00 PM
Tue, May 26
58 °FOvercast.3 mph50%30.00 "Hg31 mi
9:00 PM58 °FOvercast.3 mph55%29.98 "Hg25 mi
8:00 PM59 °FOvercast.2 mph56%29.96 "Hg25 mi
7:00 PM59 °FLight rain. Overcast.3 mph58%29.96 "Hg25 mi
6:00 PM60 °FOvercast.3 mph57%29.94 "Hg25 mi
5:00 PM60 °FLight rain. Overcast.5 mph57%29.94 "Hg25 mi
4:00 PM61 °FOvercast.7 mph59%29.93 "Hg19 mi
3:00 PM62 °FOvercast.7 mph61%29.92 "Hg22 mi
2:00 PM63 °FOvercast.7 mph56%29.90 "Hg22 mi
1:00 PM63 °FOvercast.6 mph59%29.90 "Hg22 mi
12:00 PM63 °FOvercast.5 mph62%29.89 "Hg22 mi
11:00 AM61 °FOvercast.6 mph65%29.89 "Hg22 mi
10:00 AM59 °FOvercast.5 mph69%29.87 "Hg19 mi
9:00 AM56 °FOvercast.5 mph74%29.87 "Hg16 mi
8:00 AM55 °FLow clouds.5 mph81%29.86 "Hg9 mi
7:00 AM55 °FLow clouds.5 mph87%29.84 "Hg7 mi
6:00 AM55 °FLight rain. Low clouds.3 mph93%29.84 "Hg5 mi
Weather by CustomWeather, © 2015

See weather overviewHow to use our weather pages